Location: Pinhead Observatory
(34.4473°N, 118.1985°W)
Time: 17:16:11
(UTC-07:00)

CZ-4C R/B - Visible Passes

Search period start: 01 August 2015 00:00
Search period end: 11 August 2015 00:00
Orbit: 765 x 1237 km, 63.4° (Epoch: 01 August)

Date Brightness Start Highest point End Pass type
(mag) Time Alt. Az. Time Alt. Az. Time Alt. Az.
01 Aug 4.2 01:12:49 21° NE 01:12:49 21° NE 01:14:52 10° NE visible
01 Aug 3.8 02:57:59 24° NW 02:58:13 24° NW 03:02:52 10° N visible
02 Aug 3.6 01:45:14 35° NNE 01:45:14 35° NNE 01:48:39 10° NNE visible
02 Aug 4.6 03:30:42 10° NW 03:32:44 12° NW 03:34:34 10° NNW visible
03 Aug 4.6 00:32:26 14° NE 00:32:26 14° NE 00:33:21 10° NE visible
03 Aug 3.8 02:17:35 27° NNW 02:17:35 27° NNW 02:21:46 10° N visible
04 Aug 4.0 01:04:46 27° NNE 01:04:46 27° NNE 01:07:20 10° NNE visible
04 Aug 4.5 02:49:56 13° NW 02:51:08 14° NW 02:54:01 10° N visible
05 Aug 3.9 01:37:04 29° NNW 01:37:04 29° NNW 01:40:37 10° NNE visible
06 Aug 4.3 00:24:10 20° NE 00:24:10 20° NE 00:26:00 10° NE visible
06 Aug 4.4 02:09:20 17° NW 02:09:33 17° NW 02:13:11 10° N visible
07 Aug 4.0 00:56:23 28° N 00:56:23 28° N 00:59:26 10° NNE visible
07 Aug 4.4 23:43:24 16° NE 23:43:24 16° NE 23:44:36 10° NE visible
08 Aug 4.3 01:28:33 20° NW 01:28:33 20° NW 01:32:13 10° N visible
09 Aug 4.0 00:15:30 26° NNE 00:15:30 26° NNE 00:18:13 10° NNE visible
09 Aug 4.5 23:02:24 14° NE 23:02:24 14° NE 23:03:09 10° NE visible
10 Aug 4.2 00:47:33 23° NNW 00:47:33 23° NNW 00:51:11 10° N visible
10 Aug 3.9 23:34:20 26° NNE 23:34:20 26° NNE 23:36:57 10° NNE visible
